This is the latest recevied weather packets stored in our database for station/object KC5DAQ-28. If no packets are shown the sender has not sent any weather packets the latest 1 day(s).
| Time | Temp. | Humidity | Pressure | Rain* | Wind** | Luminosity | Snow |
|---|---|---|---|---|---|---|---|
| 1778037363 | 25.56° C | 85% | 1002.5 hPa | 0 mm | 2.24 m/s, 190° | 0 W/m² | - |
| 1778037303 | 25.56° C | 85% | 1002.6 hPa | 0 mm | 2.24 m/s, 141° | 0 W/m² | - |
| 1778037243 | 25.56° C | 85% | 1002.6 hPa | 0 mm | 1.79 m/s, 188° | 0 W/m² | - |
| 1778037184 | 25.56° C | 85% | 1002.5 hPa | 0 mm | 1.79 m/s, 149° | 0 W/m² | - |
| 1778037122 | 25.56° C | 85% | 1002.5 hPa | 0 mm | 2.24 m/s, 197° | 0 W/m² | - |
| 1778037062 | 25.56° C | 85% | 1002.4 hPa | 0 mm | 2.24 m/s, 182° | 0 W/m² | - |
| 1778037004 | 25.56° C | 85% | 1002.4 hPa | 0 mm | 2.24 m/s, 137° | 0 W/m² | - |
| 1778036944 | 25.56° C | 85% | 1002.3 hPa | 0 mm | 2.24 m/s, 120° | 0 W/m² | - |
| 1778036882 | 25.56° C | 85% | 1002.4 hPa | 0 mm | 2.24 m/s, 189° | 0 W/m² | - |
| 1778036823 | 25.56° C | 85% | 1002.3 hPa | 0 mm | 1.79 m/s, 165° | 0 W/m² | - |
| 1778036763 | 25.56° C | 85% | 1002.3 hPa | 0 mm | 1.34 m/s, 130° | 0 W/m² | - |
| 1778036703 | 25.56° C | 85% | 1002.3 hPa | 0 mm | 1.34 m/s, 158° | 0 W/m² | - |
| 1778036642 | 25.56° C | 84% | 1002.3 hPa | 0 mm | 2.24 m/s, 147° | 0 W/m² | - |
| 1778036582 | 25.56° C | 84% | 1002.3 hPa | 0 mm | 2.68 m/s, 128° | 0 W/m² | - |
| 1778036523 | 25.56° C | 85% | 1002.4 hPa | 0 mm | 2.24 m/s, 154° | 0 W/m² | - |
| 1778036462 | 25.56° C | 84% | 1002.3 hPa | 0 mm | 1.79 m/s, 190° | 0 W/m² | - |
| 1778036403 | 25.56° C | 85% | 1002.4 hPa | 0 mm | 1.79 m/s, 113° | 0 W/m² | - |
| 1778036344 | 25.56° C | 85% | 1002.4 hPa | 0 mm | 1.79 m/s, 178° | 0 W/m² | - |
| 1778036283 | 25.56° C | 84% | 1002.4 hPa | 0 mm | 1.79 m/s, 196° | 0 W/m² | - |
| 1778036224 | 25.56° C | 84% | 1002.3 hPa | 0 mm | 1.79 m/s, 149° | 0 W/m² | - |
| 1778036162 | 25.56° C | 84% | 1002.4 hPa | 0 mm | 1.79 m/s, 152° | 0 W/m² | - |
| 1778036105 | 25.56° C | 84% | 1002.4 hPa | 0 mm | 1.34 m/s, 158° | 0 W/m² | - |
| 1778036042 | 25.56° C | 84% | 1002.4 hPa | 0 mm | 1.79 m/s, 169° | 0 W/m² | - |
| 1778035983 | 25.56° C | 84% | 1002.4 hPa | 0 mm | 2.24 m/s, 157° | 0 W/m² | - |
| 1778035923 | 25.56° C | 84% | 1002.5 hPa | 0 mm | 1.79 m/s, 151° | 0 W/m² | - |
* Rain latest hour (hover to see other rain measurements)
** Current wind speed in m/s (hover to see current wind gust speed)